Temp
7 6 6 6 6 7 7 8 8 8 9 9 9 10 9 9 9 10 10 6 7 8 9 10 10 11 12 12 13 13 12 11 14 15 16 18 17 18 19 19 20 19 20 20 18
6 6 7 6 6 7 7 7 8 8 9 9 9 10 10 9 9 9 7 8 8 8 10 10 10 10 12 12 13 11 11 12 14 15 15 16 16 16 17 18 18 18 19 19 18
6 6 7 7 7 7 7 8 8 8 9 9 9 9 9 8 9 7 8 8 8 8 9 9 9 10 10 11 12 12 11 13 14 14 14 14 15 16 16 15 17 18 19 18 17
6 7 7 7 7 7 7 8 8 9 9 9 9 9 9 9 7 7 8 8 8 8 9 9 9 8 8 8 9 8 11 10 11 10 11 12 13 15 16 16 17 17 18 18 16
6 7 7 7 7 7 8 8 8 9 9 9 9 9 9 8 6 7 8 8 9 9 8 7 7 6 6 6 8 8 8 9 9 10 11 12 12 13 13 15 16 16 17 17 17
7 7 8 7 7 7 8 8 9 9 9 9 9 9 9 5 7 7 7 8 8 8 7 7 6 6 6 7 6 7 8 8 10 10 11 11 12 12 14 15 16 15 15 16 16
7 7 8 8 8 8 8 9 9 9 8 9 9 9 9 7 7 7 8 7 7 7 8 7 6 6 6 5 8 8 6 7 9 10 9 10 10 12 14 14 14 15 15 16 16
7 7 8 8 8 8 9 9 9 9 9 9 9 9 8 8 8 9 9 9 8 8 7 7 7 6 6 7 7 6 7 5 8 8 10 10 8 10 12 12 11 12 13 14 15
7 8 8 8 8 9 9 9 9 9 9 9 9 10 8 8 9 9 8 8 8 9 8 8 7 7 7 5 4 4 4 5 6 8 8 9 7 8 11 10 10 10 11 12 12
8 8 8 8 8 9 9 9 9 9 9 9 9 9 8 7 7 7 8 8 8 8 8 8 7 4 3 3 2 4 4 5 5 7 7 7 7 8 10 10 10 10 10 11 12
8 8 7 8 8 9 10 9 9 9 8 6 6 7 6 7 7 7 8 8 8 7 4 6 4 4 5 6 6 5 4 4 5 7 6 6 7 8 9 9 9 9 10 10 11
8 7 7 8 8 8 9 9 7 6 6 6 6 7 6 6 7 7 7 7 5 4 4 3 5 6 6 6 5 5 4 4 5 6 6 6 6 7 7 8 8 9 9 10 11
8 7 7 8 7 8 7 6 6 6 5 6 6 6 6 6 6 6 6 6 5 4 3 3 5 6 6 5 5 5 5 4 5 6 6 5 5 5 8 8 9 10 10 10 10
8 7 7 7 7 7 6 6 5 5 -1 4 6 6 6 6 6 7 6 6 5 4 3 3 6 5 4 4 5 4 6 6 5 5 3 5 4 6 6 6 7 8 7 8 9
8 7 7 7 7 7 6 6 5 5 3 5 5 6 6 6 6 6 6 6 4 4 4 4 4 4 4 5 6 5 6 5 5 4 4 4 4 5 7 7 6 5 6 6 7
7 8 7 7 7 7 6 5 5 1 3 1 3 3 4 5 5 5 5 6 5 3 3 3 5 5 5 6 5 5 5 4 3 4 3 4 3 6 6 6 5 6 5 5 6
7 7 7 7 7 7 6 5 0 2 1 1 1 2 2 2 3 3 3 2 1 -1 -0 1 3 5 5 3 4 4 2 -2 -1 -1 0 5 5 6 6 6 6 5 5 5 4
6 6 6 7 7 7 6 -0 3 -6 -6 1 1 1 1 1 2 1 2 1 2 -0 -2 -1 -1 4 4 4 3 3 2 3 4 1 4 6 4 6 6 6 6 6 4 4 4
6 6 6 6 6 7 6 -2 0 -4 -3 -0 -0 -4 -5 -0 0 0 -0 1 3 2 -2 -2 0 3 3 4 4 1 1 5 4 1 3 3 5 7 7 6 5 5 3 3 3
5 5 6 6 6 6 -0 2 -2 1 1 -0 -1 -6 -5 -7 -1 -2 -2 2 3 2 2 1 -0 2 3 4 5 4 5 3 1 3 3 4 3 6 4 4 4 4 3 2 2
5 5 5 5 5 6 -2 -4 -3 2 3 0 -5 -5 -6 -5 -4 -5 -4 1 3 2 2 1 -0 1 1 3 3 -0 0 2 2 3 4 4 5 6 4 5 4 3 2 2 1
5 2 4 4 3 -3 -5 -3 2 2 2 1 -0 -2 -5 -6 -5 -3 -2 0 2 2 -2 1 -0 -1 1 3 3 3 3 1 2 3 3 3 4 5 6 4 3 2 1 0 -1
5 3 3 3 -2 -6 -4 0 2 1 1 1 1 1 -1 -5 -4 -5 -1 2 2 1 -1 -0 -5 -3 -1 2 4 3 3 1 1 1 3 3 3 7 5 3 2 1 -0 -1 -1
5 -2 1 2 1 -2 -4 -2 -1 2 1 2 1 1 -1 -4 -2 -5 -1 1 1 1 2 2 -1 -4 -2 1 1 1 1 2 1 2 3 3 3 4 3 1 1 -1 -2 -2 -2
5 2 3 -1 -1 -1 1 -1 0 -1 2 2 1 0 -1 -5 -4 -5 -3 -1 1 1 1 0 -4 -5 -2 -1 -1 -1 -0 1 1 3 2 3 3 2 1 0 -0 -2 -3 -3 -3
5 3 1 -0 0 0 -0 -1 0 -2 0 0 -0 0 -1 -3 -1 -4 -4 -3 -1 -1 -1 -1 -6 -2 -2 -0 0 0 2 2 3 2 3 3 3 3 1 -0 -1 -3 -3 -4 -3
4 5 6 -0 -0 -0 -0 -0 0 1 1 2 0 0 -1 -0 1 1 0 0 -0 -1 -0 -2 -3 -4 -5 -1 -0 -0 3 3 2 2 2 2 2 0 -0 -1 -2 -3 -4 -4 -4
Height
1549 1547 1546 1545 1543 1541 1539 1537 1535 1532 1530 1527 1525 1523 1521 1521 1520 1517 1513 1518 1514 1512 1509 1507 1505 1504 1504 1504 1505 1504 1506 1504 1496 1494 1485 1484 1486 1482 1481 1479 1478 1477 1476 1478 1479
1549 1548 1545 1545 1543 1541 1539 1536 1534 1532 1529 1527 1524 1523 1521 1521 1519 1517 1519 1517 1514 1511 1508 1504 1503 1502 1503 1502 1503 1503 1501 1494 1489 1487 1486 1484 1485 1483 1482 1479 1477 1477 1476 1476 1478
1549 1547 1545 1544 1543 1541 1539 1536 1534 1532 1529 1527 1525 1523 1521 1520 1520 1520 1519 1516 1514 1511 1508 1506 1504 1503 1503 1502 1500 1498 1497 1491 1489 1489 1488 1485 1481 1481 1480 1479 1477 1476 1473 1473 1474
1549 1547 1545 1544 1543 1541 1539 1537 1535 1533 1530 1528 1527 1525 1523 1520 1529 1523 1519 1517 1514 1511 1509 1506 1504 1503 1504 1504 1502 1503 1495 1496 1493 1490 1488 1485 1483 1477 1476 1476 1476 1476 1474 1469 1471
1548 1547 1544 1543 1543 1541 1539 1537 1534 1533 1531 1530 1529 1526 1525 1524 1529 1525 1521 1518 1514 1511 1508 1507 1506 1507 1507 1506 1503 1500 1499 1494 1492 1490 1486 1483 1479 1478 1469 1472 1472 1473 1473 1470 1468
1547 1546 1544 1543 1542 1540 1539 1536 1534 1533 1531 1531 1529 1529 1526 1527 1530 1527 1523 1520 1516 1513 1511 1509 1510 1510 1509 1507 1507 1501 1498 1494 1490 1486 1481 1478 1471 1473 1466 1468 1467 1470 1470 1470 1467
1546 1544 1544 1543 1542 1541 1539 1536 1534 1533 1531 1529 1530 1529 1528 1533 1530 1528 1524 1520 1517 1516 1514 1512 1512 1511 1511 1508 1504 1500 1498 1491 1487 1487 1482 1476 1465 1461 1465 1466 1461 1462 1465 1466 1465
1546 1544 1544 1544 1542 1540 1539 1537 1535 1533 1531 1531 1531 1530 1531 1532 1531 1528 1524 1521 1519 1517 1515 1513 1512 1512 1511 1508 1503 1502 1499 1503 1487 1486 1483 1483 1469 1465 1459 1461 1460 1456 1456 1460 1460
1545 1544 1543 1543 1542 1540 1538 1537 1536 1533 1532 1532 1532 1531 1534 1533 1530 1528 1525 1521 1519 1517 1515 1514 1513 1513 1512 1512 1512 1510 1512 1507 1497 1487 1486 1483 1471 1466 1461 1458 1455 1453 1450 1452 1454
1544 1544 1543 1543 1542 1539 1537 1536 1536 1535 1533 1533 1533 1536 1536 1536 1532 1529 1525 1522 1519 1517 1515 1515 1514 1516 1517 1519 1530 1516 1512 1505 1502 1489 1482 1479 1463 1463 1462 1456 1449 1446 1444 1443 1443
1544 1543 1543 1543 1542 1539 1537 1536 1539 1538 1535 1539 1541 1539 1539 1536 1533 1530 1524 1522 1521 1520 1522 1518 1521 1522 1519 1516 1514 1512 1511 1507 1496 1487 1484 1477 1460 1458 1454 1449 1445 1441 1439 1434 1436
1543 1543 1543 1543 1542 1540 1538 1537 1538 1541 1541 1541 1541 1540 1539 1536 1534 1532 1528 1525 1525 1526 1523 1525 1522 1517 1515 1513 1512 1509 1508 1502 1490 1484 1482 1470 1458 1450 1443 1438 1437 1434 1432 1431 1429
1542 1543 1543 1542 1541 1540 1539 1539 1539 1540 1541 1543 1542 1541 1540 1539 1537 1534 1532 1529 1527 1526 1528 1531 1520 1516 1513 1512 1511 1505 1504 1500 1493 1482 1476 1470 1456 1450 1433 1433 1430 1428 1424 1423 1422
1541 1541 1542 1542 1543 1540 1540 1540 1539 1540 1552 1548 1543 1543 1541 1539 1538 1536 1534 1534 1529 1529 1526 1526 1516 1516 1514 1513 1510 1508 1497 1493 1488 1487 1491 1475 1470 1445 1435 1433 1430 1428 1424 1420 1417
1540 1540 1541 1541 1541 1540 1542 1540 1540 1542 1572 1549 1545 1544 1542 1542 1543 1538 1535 1532 1531 1530 1532 1525 1518 1517 1515 1510 1508 1505 1495 1491 1486 1484 1486 1471 1477 1444 1438 1432 1432 1429 1425 1421 1418
1540 1539 1540 1541 1541 1541 1540 1540 1541 1555 1567 1554 1547 1547 1544 1544 1543 1539 1537 1535 1532 1530 1529 1525 1517 1515 1511 1507 1503 1499 1495 1485 1484 1481 1486 1472 1479 1442 1439 1436 1432 1428 1424 1421 1415
1539 1539 1539 1539 1540 1540 1539 1540 1555 1564 1559 1558 1555 1551 1549 1550 1546 1544 1542 1543 1546 1552 1546 1530 1517 1511 1510 1509 1501 1503 1507 1526 1518 1515 1503 1464 1467 1441 1436 1434 1433 1429 1422 1418 1415
1538 1537 1538 1538 1538 1538 1538 1542 1561 1578 1573 1556 1555 1554 1554 1555 1550 1548 1546 1550 1546 1550 1556 1553 1543 1514 1511 1514 1511 1507 1510 1507 1495 1508 1473 1456 1464 1436 1433 1433 1433 1430 1425 1417 1407
1536 1536 1537 1538 1538 1538 1539 1564 1560 1564 1557 1555 1557 1568 1571 1557 1556 1552 1554 1552 1547 1547 1561 1556 1537 1515 1513 1510 1511 1511 1513 1498 1492 1493 1481 1464 1446 1432 1430 1429 1425 1420 1417 1412 1407
1534 1536 1536 1537 1538 1538 1541 1551 1555 1549 1551 1553 1562 1573 1576 1573 1560 1560 1559 1550 1548 1548 1548 1549 1544 1519 1511 1507 1504 1505 1501 1504 1505 1488 1477 1460 1457 1438 1437 1434 1431 1425 1419 1411 1405
1534 1534 1535 1535 1537 1538 1553 1556 1551 1548 1550 1553 1563 1570 1573 1571 1565 1570 1564 1551 1547 1548 1547 1548 1550 1525 1516 1509 1510 1515 1513 1506 1504 1494 1474 1466 1447 1436 1438 1431 1427 1423 1417 1409 1400
1531 1534 1533 1535 1539 1543 1551 1546 1546 1548 1550 1550 1553 1560 1566 1567 1569 1565 1561 1553 1548 1547 1552 1547 1547 1540 1519 1505 1505 1504 1504 1509 1505 1492 1486 1477 1451 1434 1433 1432 1429 1422 1414 1407 1397
1527 1530 1532 1534 1544 1548 1545 1545 1546 1548 1548 1550 1552 1554 1556 1564 1570 1567 1557 1548 1547 1546 1549 1547 1558 1553 1529 1512 1503 1506 1502 1506 1504 1498 1482 1474 1454 1434 1432 1429 1425 1419 1410 1401 1392
1523 1531 1532 1534 1532 1534 1544 1545 1546 1545 1545 1547 1550 1551 1556 1562 1558 1563 1554 1548 1547 1546 1545 1545 1547 1553 1548 1522 1518 1515 1504 1500 1501 1491 1477 1468 1455 1436 1431 1426 1417 1412 1406 1397 1388
1515 1518 1520 1531 1529 1531 1534 1539 1541 1545 1544 1546 1548 1548 1553 1566 1561 1562 1555 1550 1546 1545 1545 1546 1552 1548 1533 1522 1520 1515 1510 1501 1494 1483 1480 1463 1456 1447 1439 1431 1422 1416 1405 1396 1388
1508 1512 1517 1521 1519 1529 1532 1537 1535 1540 1540 1544 1545 1543 1548 1553 1546 1556 1552 1552 1548 1547 1547 1546 1555 1538 1525 1512 1510 1507 1499 1494 1486 1481 1473 1464 1455 1449 1438 1431 1424 1415 1407 1399 1391
1503 1504 1507 1519 1521 1526 1525 1525 1526 1529 1534 1534 1536 1541 1544 1540 1539 1540 1542 1543 1544 1545 1545 1547 1547 1548 1544 1514 1507 1507 1492 1489 1487 1480 1475 1467 1460 1450 1437 1430 1426 1418 1411 1403 1395
Wind_Speed
9 10 11 11 12 12 13 15 15 15 15 15 13 10 4 6 14 18 17 19 16 14 11 9 5 6 4 4 6 3 3 5 7 8 9 12 4 11 12 9 5 6 7 7 18
9 10 11 12 12 12 12 14 15 15 15 14 13 10 6 5 12 26 21 16 13 12 13 13 10 4 2 1 3 4 4 6 4 5 5 11 5 14 6 10 5 6 9 9 23
10 10 11 12 12 12 13 14 14 15 14 13 10 12 10 2 4 20 20 18 14 11 13 9 7 3 2 2 3 4 5 5 11 16 17 15 18 15 4 6 12 13 18 19 27
10 11 11 11 11 11 11 12 13 13 12 11 9 8 13 7 3 19 20 17 15 12 11 8 9 4 4 4 7 6 7 6 8 16 16 10 16 12 15 13 23 16 19 24 31
10 11 11 10 9 10 11 12 13 13 9 8 13 14 9 14 11 19 19 16 16 14 16 17 15 9 4 7 14 2 8 20 21 20 20 20 12 13 24 20 23 20 14 25 30
11 10 10 9 9 9 10 11 11 10 8 5 7 19 17 11 16 18 20 18 16 15 16 16 10 10 5 5 4 13 14 18 17 25 18 14 17 7 4 15 20 20 14 21 31
9 8 9 7 8 9 10 10 8 9 8 7 3 4 21 13 15 17 20 18 15 13 14 12 12 10 9 6 8 12 6 8 4 12 6 22 13 19 22 25 31 32 24 23 25
7 7 6 6 6 7 9 7 5 8 7 7 5 8 6 15 11 17 21 14 7 11 13 10 9 7 4 11 9 5 3 6 11 9 8 11 11 18 13 23 23 26 23 25 25
7 7 5 5 6 7 9 5 4 7 10 6 4 5 4 11 15 19 24 21 11 12 6 6 4 4 6 5 4 5 5 9 8 12 5 2 12 9 34 26 24 27 31 25 16
6 5 4 5 6 8 8 2 4 11 3 3 9 5 13 16 10 23 24 11 11 14 5 6 3 3 4 5 2 8 7 5 10 7 18 17 24 10 22 30 31 31 29 29 33
5 3 2 4 6 8 8 2 1 2 16 10 6 4 10 17 7 20 27 10 9 8 6 6 4 2 5 3 5 6 6 10 14 14 9 13 25 21 24 28 29 30 32 33 30
4 2 2 3 5 9 9 5 6 3 6 9 6 5 8 14 8 23 26 10 7 4 10 6 2 3 6 4 6 8 9 9 10 7 11 16 23 24 22 24 29 29 29 29 34
2 1 1 2 4 6 11 10 5 5 3 5 8 6 8 8 5 15 21 9 4 4 5 3 7 10 4 7 6 6 5 6 13 15 11 10 10 7 13 11 18 20 28 30 31
2 2 1 2 2 6 7 9 4 3 4 7 6 6 9 6 3 15 16 6 5 5 6 5 6 6 8 7 3 6 5 12 17 11 6 6 7 13 9 9 6 15 21 24 23
4 3 1 1 2 4 5 7 1 1 4 4 5 6 4 6 7 14 12 4 3 5 2 6 6 10 10 3 4 10 11 15 16 15 7 3 3 9 4 5 7 8 21 27 25
5 4 2 0 2 4 7 5 1 5 3 5 5 8 5 8 5 11 8 11 2 5 2 8 11 3 4 3 5 8 9 15 2 1 3 4 4 9 2 3 5 10 17 22 31
7 5 3 1 1 5 7 2 5 6 4 6 3 5 2 6 6 8 5 7 5 7 6 8 6 5 3 7 6 10 4 4 6 3 6 2 2 10 1 2 5 9 22 27 24
8 6 4 2 1 4 7 5 6 3 5 1 3 2 4 6 4 7 4 5 5 4 3 4 10 5 3 2 5 5 2 3 5 3 12 8 6 5 4 2 11 18 21 27 35
10 8 6 4 2 3 2 5 7 7 4 2 1 6 5 4 2 6 5 3 1 4 2 4 6 5 12 4 3 5 2 7 5 3 4 3 6 3 5 14 26 32 34 34 33
11 8 6 6 3 2 4 3 3 3 4 3 4 3 1 4 3 4 3 3 3 4 2 2 9 5 6 6 1 4 2 4 3 5 5 4 5 5 11 18 19 23 29 34 35
12 5 5 7 4 1 3 5 3 4 4 3 5 3 3 2 1 2 4 4 2 3 4 3 4 7 6 1 4 5 4 2 3 4 4 6 4 3 9 21 21 23 32 36 36
11 2 7 10 2 2 3 5 5 5 3 3 5 3 5 4 0 2 4 5 3 2 0 2 4 6 8 14 9 4 1 1 3 4 5 5 7 5 20 18 22 29 32 34 34
10 5 8 12 3 1 2 1 5 4 4 4 4 4 4 4 2 3 4 5 5 3 2 2 3 6 10 6 2 3 7 5 8 7 7 4 7 19 22 21 31 28 33 32 28
10 2 4 7 3 6 5 3 3 6 5 5 4 5 3 1 3 3 3 3 5 4 5 0 3 7 6 10 8 11 16 19 8 4 5 8 19 25 25 26 28 30 31 29 26
10 6 8 3 5 5 5 6 5 5 4 8 1 5 5 3 1 3 3 4 4 5 1 1 5 3 13 21 17 18 18 19 15 11 3 15 20 21 22 22 16 27 28 25 23
12 8 7 5 10 8 4 6 9 3 8 5 4 7 7 6 8 7 5 3 4 3 2 1 4 4 7 4 6 11 15 11 10 7 11 13 18 20 33 29 21 27 26 23 21
19 15 9 8 8 5 5 6 9 11 10 4 12 5 7 14 16 13 8 6 6 4 4 2 2 5 6 9 13 3 3 4 5 7 8 9 17 15 24 20 22 28 26 22 22
Wind_Direction
34 23 18 12 10 10 10 8 11 13 9 5 8 14 25 48 37 36 32 2 352 349 348 340 282 250 229 233 223 231 229 218 224 217 252 274 317 314 303 257 220 200 201 221 186
14 8 6 0 0 359 4 3 6 11 11 10 10 34 33 83 44 30 17 5 356 347 349 360 13 0 210 232 243 205 230 232 243 240 269 299 315 319 317 288 251 219 220 204 179
359 357 357 355 354 355 359 1 5 12 11 24 43 46 32 94 20 6 10 8 5 354 354 352 355 355 324 270 255 282 242 295 282 298 322 308 302 297 250 281 251 233 220 189 183
350 349 349 348 344 350 358 0 8 18 25 42 53 34 43 50 61 4 10 12 11 5 352 11 11 25 8 336 354 326 333 18 314 323 322 318 314 293 259 249 280 308 254 204 191
343 342 343 343 341 352 356 2 9 24 40 71 68 43 67 63 26 12 8 5 11 15 17 17 27 6 5 344 334 233 345 324 313 312 303 298 281 272 277 272 271 286 262 217 208
340 342 342 344 348 354 357 2 8 23 49 112 88 48 61 64 19 11 8 7 15 21 25 23 5 341 296 312 317 312 297 296 308 304 290 273 279 273 310 278 272 274 259 243 223
342 356 345 351 351 355 357 3 26 22 38 90 133 36 45 40 16 10 18 18 15 26 26 23 5 358 330 315 315 292 313 317 311 348 299 338 272 259 272 277 280 277 267 253 240
340 354 350 352 352 359 355 8 45 33 70 73 39 58 70 12 20 6 12 24 16 0 349 350 351 334 307 308 320 326 19 2 318 342 309 3 281 310 312 327 313 308 295 258 255
340 348 350 348 354 359 357 3 58 44 80 50 41 77 33 356 14 14 5 350 15 19 29 359 334 336 333 339 353 17 311 319 313 310 298 221 293 294 306 308 300 297 296 291 286
335 339 350 347 353 2 359 17 112 43 128 62 49 92 14 349 2 4 4 4 4 13 19 14 15 45 16 38 328 301 307 283 287 296 304 296 288 289 295 296 291 291 289 289 286
328 324 354 353 0 8 18 141 59 42 61 63 42 67 349 360 25 8 5 7 17 29 18 347 46 338 304 294 248 261 273 282 285 280 294 287 288 291 289 278 275 270 274 278 275
319 304 351 354 18 22 30 71 59 105 85 50 33 38 4 5 1 15 10 30 16 354 359 8 316 219 302 311 303 290 293 289 288 283 300 294 284 283 275 271 266 269 270 268 275
279 222 296 352 22 22 36 49 48 129 96 33 29 6 7 360 11 356 4 353 0 336 346 202 261 321 328 318 320 300 258 280 287 311 286 299 298 332 293 270 280 281 277 275 264
207 190 257 345 359 11 27 19 25 139 80 322 354 16 351 347 341 8 357 4 354 315 347 273 292 324 313 302 270 292 273 292 297 318 307 73 295 284 288 312 352 344 351 342 309
200 191 222 30 25 25 2 357 355 157 54 305 334 350 26 43 330 2 1 352 331 291 30 265 295 325 322 289 307 264 284 286 285 285 295 14 242 272 303 312 347 348 344 346 347
203 190 189 325 15 7 353 353 133 43 274 339 346 360 16 11 12 337 8 11 306 335 238 263 290 239 236 296 270 292 318 307 357 219 260 254 152 278 291 309 328 328 340 345 346
200 195 195 210 332 345 347 335 36 101 330 311 337 2 28 347 342 11 5 21 40 8 349 325 298 296 9 332 325 17 3 332 348 3 224 265 292 247 43 1 323 322 334 334 340
198 195 204 215 295 339 343 49 74 222 230 316 358 343 64 2 354 340 22 21 25 76 308 345 334 11 23 265 283 314 122 276 294 288 292 276 231 271 110 345 334 328 327 329 334
195 197 206 214 259 336 333 53 193 196 189 158 60 61 323 339 14 10 14 345 56 56 100 330 271 304 306 279 112 289 340 277 267 243 267 268 293 268 6 355 349 339 337 329 322
193 196 207 209 226 337 71 208 167 185 146 100 119 123 248 291 24 41 348 282 352 87 61 273 294 266 289 321 114 203 320 333 3 299 294 276 277 257 4 346 333 329 325 319 316
185 189 205 194 187 105 148 210 212 190 165 119 164 135 221 230 175 293 253 289 356 350 8 2 202 291 350 309 313 338 332 12 272 239 291 322 264 161 345 339 330 327 322 319 315
180 139 182 174 113 45 144 180 163 161 166 106 114 124 171 185 172 265 258 231 12 63 38 237 285 282 274 287 280 223 84 296 249 314 269 255 272 175 341 330 327 322 317 317 312
175 150 175 179 139 256 307 220 183 151 181 154 165 171 172 175 28 202 264 276 305 46 59 269 308 310 336 355 28 337 304 269 291 267 241 282 283 322 319 325 326 325 326 323 318
165 105 147 201 164 136 141 213 195 197 154 162 165 146 95 32 212 252 261 288 324 313 317 234 239 201 222 257 301 296 297 304 298 262 301 274 301 318 324 329 329 334 334 329 330
176 191 169 192 224 166 145 151 153 170 186 183 206 191 170 166 318 239 252 291 318 355 86 63 263 222 256 262 275 271 279 292 297 295 277 296 299 315 320 325 325 335 337 341 344
174 157 156 155 139 133 180 217 175 209 157 214 195 193 180 180 189 206 179 220 236 10 38 348 274 302 293 287 247 269 285 274 303 290 271 286 305 331 321 332 346 347 351 352 358
202 173 165 160 148 128 208 191 199 161 203 182 193 149 198 233 235 254 257 252 245 248 289 269 300 349 271 322 312 347 241 277 303 272 297 327 319 324 327 336 357 352 1 6 22